Time,TemperatureF,DewpointF,PressureIn,WindDirection,WindDirectionDegrees,WindSpeedMPH,WindSpeedGustMPH,Humidity,HourlyPrecipIn,Conditions,Clouds,dailyrainin,SoftwareType,DateUTC
2013-10-22 00:00:00,55.1,21.3,27.41,ESE,113,0.0,0.0,27,0.00,,,0.00,WUHU216HW,2013-10-22 07:00:00,
2013-10-22 00:05:00,55.1,21.3,27.41,ESE,113,0.0,0.0,27,0.00,,,0.00,WUHU216HW,2013-10-22 07:05:00,
2013-10-22 00:30:00,55.1,20.4,27.40,East,90,0.0,0.0,26,0.00,,,0.00,WUHU216HW,2013-10-22 07:30:00,
2013-10-22 00:35:00,55.1,20.4,27.40,East,90,0.0,0.0,26,0.00,,,0.00,WUHU216HW,2013-10-22 07:35:00,
2013-10-22 01:00:00,54.7,21.1,27.41,East,90,0.0,0.0,27,0.00,,,0.00,WUHU216HW,2013-10-22 08:00:00,
2013-10-22 01:05:00,54.7,21.1,27.41,East,90,0.0,0.0,27,0.00,,,0.00,WUHU216HW,2013-10-22 08:05:00,
2013-10-22 01:10:00,54.7,21.1,27.41,East,90,0.0,0.0,27,0.00,,,0.00,WUHU216HW,2013-10-22 08:10:00,
2013-10-22 01:30:00,53.3,19.9,27.42,NNE,23,0.4,0.4,27,0.00,,,0.00,WUHU216HW,2013-10-22 08:30:00,
2013-10-22 01:35:00,53.3,19.9,27.42,NNE,23,0.4,0.4,27,0.00,,,0.00,WUHU216HW,2013-10-22 08:35:00,
2013-10-22 02:00:00,53.1,20.7,27.42,SW,225,0.0,0.0,28,0.00,,,0.00,WUHU216HW,2013-10-22 09:00:00,
2013-10-22 02:05:00,53.1,20.7,27.42,SW,225,0.0,0.0,28,0.00,,,0.00,WUHU216HW,2013-10-22 09:05:00,
2013-10-22 02:30:00,52.2,19.9,27.42,NE,45,0.0,0.0,28,0.00,,,0.00,WUHU216HW,2013-10-22 09:30:00,
2013-10-22 02:35:00,52.2,19.9,27.42,NE,45,0.0,0.0,28,0.00,,,0.00,WUHU216HW,2013-10-22 09:35:00,
2013-10-22 03:00:00,50.4,20.2,27.41,NE,45,0.0,0.0,30,0.00,,,0.00,WUHU216HW,2013-10-22 10:00:00,
2013-10-22 03:05:00,50.6,20.3,27.41,NE,45,0.0,0.0,30,0.00,,,0.00,WUHU216HW,2013-10-22 10:05:00,
2013-10-22 03:30:00,49.7,20.2,27.42,SE,135,0.0,0.0,31,0.00,,,0.00,WUHU216HW,2013-10-22 10:30:00,
2013-10-22 03:35:00,49.7,20.2,27.41,SE,135,0.0,0.0,31,0.00,,,0.00,WUHU216HW,2013-10-22 10:35:00,
2013-10-22 03:41:00,49.7,20.2,27.41,SE,135,0.0,0.0,31,0.00,,,0.00,WUHU216HW,2013-10-22 10:41:00,
2013-10-22 04:00:00,49.9,20.4,27.41,ESE,113,0.0,0.0,31,0.00,,,0.00,WUHU216HW,2013-10-22 11:00:00,
2013-10-22 04:05:00,49.9,20.4,27.41,ESE,113,0.0,0.0,31,0.00,,,0.00,WUHU216HW,2013-10-22 11:05:00,
2013-10-22 04:30:00,49.3,20.6,27.41,NNE,23,1.1,1.1,32,0.00,,,0.00,WUHU216HW,2013-10-22 11:30:00,
2013-10-22 04:35:00,49.3,20.6,27.41,NE,45,0.7,1.1,32,0.00,,,0.00,WUHU216HW,2013-10-22 11:35:00,
2013-10-22 05:00:00,49.5,20.7,27.42,NNE,23,0.0,0.0,32,0.00,,,0.00,WUHU216HW,2013-10-22 12:00:00,
2013-10-22 05:05:00,49.3,20.6,27.42,NNE,23,0.0,0.0,32,0.00,,,0.00,WUHU216HW,2013-10-22 12:05:00,
2013-10-22 05:30:00,48.8,20.2,27.42,NNE,23,0.0,0.0,32,0.00,,,0.00,WUHU216HW,2013-10-22 12:30:00,
2013-10-22 05:35:00,48.8,20.2,27.42,NNE,23,0.0,0.0,32,0.00,,,0.00,WUHU216HW,2013-10-22 12:35:00,
2013-10-22 06:00:00,48.2,21.1,27.42,ESE,113,0.0,0.0,34,0.00,,,0.00,WUHU216HW,2013-10-22 13:00:00,
2013-10-22 06:05:00,48.2,21.1,27.42,SE,135,0.0,0.0,34,0.00,,,0.00,WUHU216HW,2013-10-22 13:05:00,
2013-10-22 06:30:00,47.7,20.5,27.43,SE,135,0.4,0.4,34,0.00,,,0.00,WUHU216HW,2013-10-22 13:30:00,
2013-10-22 06:35:00,47.7,20.5,27.43,SE,135,0.4,0.4,34,0.00,,,0.00,WUHU216HW,2013-10-22 13:35:00,
2013-10-22 07:00:00,47.9,22.1,27.43,NE,45,0.0,0.0,36,0.00,,,0.00,WUHU216HW,2013-10-22 14:00:00,
2013-10-22 07:05:00,47.9,22.1,27.43,NE,45,0.2,0.2,36,0.00,,,0.00,WUHU216HW,2013-10-22 14:05:00,
2013-10-22 07:30:00,49.5,24.9,27.44,East,90,0.0,0.0,38,0.00,,,0.00,WUHU216HW,2013-10-22 14:30:00,
2013-10-22 07:35:00,49.5,24.1,27.44,East,90,0.0,0.0,37,0.00,,,0.00,WUHU216HW,2013-10-22 14:35:00,
2013-10-22 08:00:00,53.3,25.5,27.44,SE,135,0.0,0.0,34,0.00,,,0.00,WUHU216HW,2013-10-22 15:00:00,
2013-10-22 08:05:00,53.5,25.7,27.44,SSE,158,0.0,0.0,34,0.00,,,0.00,WUHU216HW,2013-10-22 15:05:00,
2013-10-22 08:30:00,58.1,25.0,27.44,NNW,338,0.4,0.4,28,0.00,,,0.00,WUHU216HW,2013-10-22 15:30:00,
2013-10-22 08:35:00,58.1,25.0,27.44,NNW,338,0.4,0.4,28,0.00,,,0.00,WUHU216HW,2013-10-22 15:35:00,
2013-10-22 09:00:00,61.2,26.7,27.44,West,270,0.4,0.4,27,0.00,,,0.00,WUHU216HW,2013-10-22 16:00:00,
2013-10-22 09:05:00,61.4,26.7,27.44,West,270,0.7,0.7,27,0.00,,,0.00,WUHU216HW,2013-10-22 16:05:00,
2013-10-22 09:30:00,66.2,29.0,27.43,NW,315,0.4,0.4,25,0.00,,,0.00,WUHU216HW,2013-10-22 16:30:00,
2013-10-22 09:35:00,66.2,29.0,27.43,NW,315,0.4,0.4,25,0.00,,,0.00,WUHU216HW,2013-10-22 16:35:00,
2013-10-22 10:00:00,71.5,30.3,27.43,ESE,113,1.1,1.1,22,0.00,,,0.00,WUHU216HW,2013-10-22 17:00:00,
2013-10-22 10:05:00,71.6,30.5,27.43,SSE,158,1.1,1.1,22,0.00,,,0.00,WUHU216HW,2013-10-22 17:05:00,
2013-10-22 10:30:00,77.4,28.3,27.42,East,90,4.0,4.0,17,0.00,,,0.00,WUHU216HW,2013-10-22 17:30:00,
2013-10-22 10:35:00,77.4,28.3,27.42,ESE,113,3.6,4.0,17,0.00,,,0.00,WUHU216HW,2013-10-22 17:35:00,
2013-10-22 11:00:00,79.9,28.6,27.42,SE,135,2.0,2.0,16,0.00,,,0.00,WUHU216HW,2013-10-22 18:00:00,
2013-10-22 11:05:00,79.9,28.6,27.42,SE,135,4.0,4.0,16,0.00,,,0.00,WUHU216HW,2013-10-22 18:05:00,
2013-10-22 11:30:00,82.1,28.7,27.41,ESE,113,1.6,1.6,15,0.00,,,0.00,WUHU216HW,2013-10-22 18:30:00,
2013-10-22 11:35:00,82.1,28.7,27.40,ESE,113,1.1,1.6,15,0.00,,,0.00,WUHU216HW,2013-10-22 18:35:00,
2013-10-22 12:00:00,83.7,24.9,27.39,ENE,68,1.1,1.1,12,0.00,,,0.00,WUHU216HW,2013-10-22 19:00:00,
2013-10-22 12:05:00,83.7,24.9,27.39,ENE,68,1.1,1.1,12,0.00,,,0.00,WUHU216HW,2013-10-22 19:05:00,
2013-10-22 12:30:00,84.2,25.2,27.38,ESE,113,1.6,1.6,12,0.00,,,0.00,WUHU216HW,2013-10-22 19:30:00,
2013-10-22 12:35:00,84.2,25.2,27.38,ESE,113,0.7,1.6,12,0.00,,,0.00,WUHU216HW,2013-10-22 19:35:00,
2013-10-22 13:00:00,85.5,22.8,27.36,WSW,248,2.7,2.7,10,0.00,,,0.00,WUHU216HW,2013-10-22 20:00:00,
2013-10-22 13:05:00,85.5,22.8,27.36,WSW,248,1.8,2.7,10,0.00,,,0.00,WUHU216HW,2013-10-22 20:05:00,
2013-10-22 13:30:00,87.1,25.8,27.35,SSW,203,2.5,2.5,11,0.00,,,0.00,WUHU216HW,2013-10-22 20:30:00,
2013-10-22 13:35:00,87.1,25.8,27.35,SSE,158,1.1,2.5,11,0.00,,,0.00,WUHU216HW,2013-10-22 20:35:00,
2013-10-22 14:00:00,87.8,24.7,27.35,ESE,113,3.4,3.4,10,0.00,,,0.00,WUHU216HW,2013-10-22 21:00:00,
2013-10-22 14:05:00,88.0,24.8,27.35,East,90,3.4,3.4,10,0.00,,,0.00,WUHU216HW,2013-10-22 21:05:00,
2013-10-22 14:30:00,88.2,24.9,27.34,NNE,23,2.7,2.7,8,0.00,,,0.00,WUHU216HW,2013-10-22 21:30:00,
2013-10-22 14:35:00,88.2,24.9,27.34,NNE,23,3.1,3.1,9,0.00,,,0.00,WUHU216HW,2013-10-22 21:35:00,
2013-10-22 14:40:00,88.2,24.9,27.34,NNE,23,3.1,3.1,9,0.00,,,0.00,WUHU216HW,2013-10-22 21:40:00,
2013-10-22 15:00:00,87.5,24.4,27.34,ENE,68,1.3,1.3,10,0.00,,,0.00,WUHU216HW,2013-10-22 22:00:00,
2013-10-22 15:05:00,87.3,24.2,27.34,ENE,68,0.9,1.3,10,0.00,,,0.00,WUHU216HW,2013-10-22 22:05:00,
2013-10-22 15:30:00,87.1,24.1,27.33,NE,45,3.4,3.4,10,0.00,,,0.00,WUHU216HW,2013-10-22 22:30:00,
2013-10-22 15:35:00,87.1,24.1,27.33,NNE,23,2.9,3.4,10,0.00,,,0.00,WUHU216HW,2013-10-22 22:35:00,
2013-10-22 16:00:00,86.9,23.9,27.32,ESE,113,4.0,4.0,10,0.00,,,0.00,WUHU216HW,2013-10-22 23:00:00,
2013-10-22 16:05:00,86.9,23.9,27.32,ESE,113,2.2,4.0,10,0.00,,,0.00,WUHU216HW,2013-10-22 23:05:00,
2013-10-22 16:30:00,86.2,23.4,27.32,SE,135,2.5,2.5,10,0.00,,,0.00,WUHU216HW,2013-10-22 23:30:00,
2013-10-22 16:35:00,86.2,23.4,27.32,East,90,1.6,2.5,10,0.00,,,0.00,WUHU216HW,2013-10-22 23:35:00,
2013-10-22 16:40:00,86.2,23.4,27.32,East,90,1.6,1.6,10,0.00,,,0.00,WUHU216HW,2013-10-22 23:40:00,
2013-10-22 17:00:00,85.3,22.7,27.32,SE,135,1.8,1.8,10,0.00,,,0.00,WUHU216HW,2013-10-23 00:00:00,
2013-10-22 17:05:00,85.1,22.5,27.32,NE,45,1.1,1.8,10,0.00,,,0.00,WUHU216HW,2013-10-23 00:05:00,
2013-10-22 17:30:00,83.3,22.9,27.32,East,90,1.8,1.8,11,0.00,,,0.00,WUHU216HW,2013-10-23 00:30:00,
2013-10-22 17:35:00,83.3,22.9,27.32,ESE,113,2.0,2.0,11,0.00,,,0.00,WUHU216HW,2013-10-23 00:35:00,
2013-10-22 18:00:00,81.9,21.8,27.33,SE,135,3.1,3.1,11,0.00,,,0.00,WUHU216HW,2013-10-23 01:00:00,
2013-10-22 18:05:00,81.9,21.8,27.33,ESE,113,0.4,3.1,11,0.00,,,0.00,WUHU216HW,2013-10-23 01:05:00,
2013-10-22 18:30:00,80.5,22.3,27.33,NW,315,2.5,2.5,12,0.00,,,0.00,WUHU216HW,2013-10-23 01:30:00,
2013-10-22 18:35:00,80.3,22.1,27.33,NE,45,3.1,3.1,12,0.00,,,0.00,WUHU216HW,2013-10-23 01:35:00,
2013-10-22 19:00:00,79.6,21.6,27.33,South,180,5.6,5.6,12,0.00,,,0.00,WUHU216HW,2013-10-23 02:00:00,
2013-10-22 19:05:00,79.6,21.6,27.33,NE,45,4.3,5.6,12,0.00,,,0.00,WUHU216HW,2013-10-23 02:05:00,
2013-10-22 19:30:00,79.6,23.2,27.33,ENE,68,1.3,1.3,13,0.00,,,0.00,WUHU216HW,2013-10-23 02:30:00,
2013-10-22 19:35:00,79.6,23.2,27.33,NNE,23,3.4,3.4,13,0.00,,,0.00,WUHU216HW,2013-10-23 02:35:00,
2013-10-22 19:41:00,79.6,23.2,27.33,NNE,23,3.4,3.4,13,0.00,,,0.00,WUHU216HW,2013-10-23 02:41:00,
2013-10-22 20:00:00,78.8,22.7,27.34,NNE,23,2.7,2.7,13,0.00,,,0.00,WUHU216HW,2013-10-23 03:00:00,
2013-10-22 20:05:00,78.8,22.7,27.34,East,90,3.6,3.6,13,0.00,,,0.00,WUHU216HW,2013-10-23 03:05:00,
2013-10-22 20:30:00,78.8,22.7,27.34,ENE,68,2.0,2.0,13,0.00,,,0.00,WUHU216HW,2013-10-23 03:30:00,
2013-10-22 20:35:00,78.8,22.7,27.34,ENE,68,2.0,2.0,13,0.00,,,0.00,WUHU216HW,2013-10-23 03:35:00,
2013-10-22 21:00:00,78.7,22.5,27.34,NE,45,4.0,4.0,13,0.00,,,0.00,WUHU216HW,2013-10-23 04:00:00,
2013-10-22 21:01:00,78.7,22.5,27.34,SSE,158,5.8,5.8,13,0.00,,,0.00,WUHU216HW,2013-10-23 04:01:00,
2013-10-22 21:02:00,78.7,22.5,27.34,SSE,158,5.8,5.8,13,0.00,,,0.00,WUHU216HW,2013-10-23 04:02:00,
2013-10-22 21:07:00,78.7,22.5,27.34,SSE,158,5.8,5.8,13,0.00,,,0.00,WUHU216HW,2013-10-23 04:07:00,
2013-10-22 21:30:00,78.8,22.7,27.34,ENE,68,5.8,5.8,13,0.00,,,0.00,WUHU216HW,2013-10-23 04:30:00,
2013-10-22 21:35:00,78.8,22.7,27.34,WNW,293,6.9,6.9,13,0.00,,,0.00,WUHU216HW,2013-10-23 04:35:00,
2013-10-22 22:00:00,78.1,25.5,27.34,NE,45,2.5,2.5,15,0.00,,,0.00,WUHU216HW,2013-10-23 05:00:00,
2013-10-22 22:05:00,78.1,25.5,27.34,NNE,23,2.5,3.4,15,0.00,,,0.00,WUHU216HW,2013-10-23 05:05:00,
2013-10-22 22:30:00,77.8,25.2,27.35,East,90,1.6,1.6,15,0.00,,,0.00,WUHU216HW,2013-10-23 05:30:00,
2013-10-22 22:35:00,77.8,25.2,27.35,ENE,68,0.7,1.6,15,0.00,,,0.00,WUHU216HW,2013-10-23 05:35:00,
2013-10-22 23:00:00,76.0,30.4,27.34,SSE,158,1.1,1.1,19,0.00,,,0.00,WUHU216HW,2013-10-23 06:00:00,
2013-10-22 23:05:00,76.0,30.4,27.34,SE,135,0.9,1.1,19,0.00,,,0.00,WUHU216HW,2013-10-23 06:05:00,
2013-10-22 23:30:00,74.2,27.4,27.34,ESE,113,0.0,0.0,18,0.00,,,0.00,WUHU216HW,2013-10-23 06:30:00,
2013-10-22 23:35:00,74.2,27.4,27.34,ESE,113,0.0,0.0,18,0.00,,,0.00,WUHU216HW,2013-10-23 06:35:00,